Tracking 18984 objects as of 24-Feb-2018
HD Live streaming from Space Station
objects crossing your sky now

PICOSAT 5

Track PICOSAT 5 now!
10-day predictions
PICOSAT 5 is classified as:


NORAD ID: 26093
Int'l Code: 2000-004L
Perigee: 706.7 km
Apogee: 750.2 km
Inclination: 100.2 °
Period: 99.2 minutes
Semi major axis: 7099 km
RCS: 0.0365 m2 (small)
Launch date: January 27, 2000
Source: United States (US)
Launch site: AIR FORCE WESTERN TEST RANGE (AFWTR)
aabbcc
Your satellite tracking list
Your tracking list is empty




NASA's NSSDC Master Catalog

Two Line Element Set (TLE):
1 26093U 00004L   18054.43849822 +.00000320 +00000-0 +95913-4 0  9998
2 26093 100.2060 218.8778 0030576 041.6895 318.6617 14.51327049951278
Source of the keplerian elements: AFSPC